When you browse on this site, cookies collect data to enhance your experience and personalize the content and advertising you see.
Visit our Privacy Policy to learn more. By continuing to use the site, you agree to this use of cookies and data.
  • în România
  • Lista ţărilor
  • Pe 7 zile
  • Temperatura apei
  • Meteo pe hartă
  • Widget-uri
  • user-avatar
    Intrare

    Meteo pe oră la Sevilia

    Astăzi, 21 Noiembrie, Joi

    Timp Temperatura Precipitaţii Vânt Presiune Umiditate
    00:00 +17°C° 0 mm 5 m/s 756 mmHg 55%
    01:00 +17°C° 0 mm 6 m/s 755 mmHg 57%
    02:00 +17°C° 0 mm 6 m/s 755 mmHg 59%
    03:00 +16°C° 0 mm 6 m/s 755 mmHg 61%
    04:00 +16°C° 0 mm 5 m/s 755 mmHg 61%
    05:00 +16°C° 0 mm 5 m/s 755 mmHg 60%
    06:00 +17°C° 0 mm 4 m/s 755 mmHg 60%
    07:00 +16°C° 0 mm 5 m/s 756 mmHg 59%
    08:00 +16°C° 0 mm 5 m/s 756 mmHg 58%
    09:00 +16°C° 0 mm 5 m/s 756 mmHg 57%
    10:00 +16°C° 0 mm 5 m/s 756 mmHg 58%
    11:00 +17°C° 0 mm 5 m/s 755 mmHg 58%
    12:00 +17°C° 0 mm 5 m/s 755 mmHg 58%
    13:00 +17°C° 0 mm 5 m/s 755 mmHg 60%
    14:00 +17°C° 0 mm 6 m/s 755 mmHg 62%
    15:00 +17°C° 0 mm 6 m/s 755 mmHg 64%
    16:00 +17°C° 0.1 mm 6 m/s 755 mmHg 66%
    17:00 +17°C° 0.1 mm 6 m/s 756 mmHg 67%
    18:00 +17°C° 0.1 mm 5 m/s 756 mmHg 68%
    19:00 +18°C° 0 mm 4 m/s 756 mmHg 68%
    20:00 +18°C° 0 mm 3 m/s 756 mmHg 67%
    21:00 +18°C° 0 mm 2 m/s 756 mmHg 67%
    22:00 +18°C° 0 mm 3 m/s 756 mmHg 67%
    23:00 +18°C° 0 mm 3 m/s 756 mmHg 67%

    Mâine, 22 Noiembrie, Vineri

    Timp Temperatura Precipitaţii Vânt Presiune Umiditate
    00:00 +18°C° 0 mm 4 m/s 756 mmHg 67%
    01:00 +18°C° 0 mm 4 m/s 755 mmHg 66%
    02:00 +18°C° 0 mm 4 m/s 755 mmHg 65%
    03:00 +17°C° 0 mm 5 m/s 755 mmHg 64%
    04:00 +18°C° 0 mm 4 m/s 755 mmHg 63%
    05:00 +18°C° 0 mm 4 m/s 755 mmHg 62%
    06:00 +18°C° 0 mm 4 m/s 754 mmHg 61%
    07:00 +18°C° 0 mm 4 m/s 755 mmHg 60%
    08:00 +17°C° 0 mm 5 m/s 755 mmHg 60%
    09:00 +17°C° 0 mm 5 m/s 755 mmHg 60%
    10:00 +19°C° 0 mm 4 m/s 754 mmHg 60%
    11:00 +19°C° 0 mm 4 m/s 754 mmHg 60%
    12:00 +19°C° 0 mm 3 m/s 753 mmHg 61%
    13:00 +19°C° 0 mm 3 m/s 753 mmHg 60%
    14:00 +20°C° 0 mm 3 m/s 753 mmHg 58%
    15:00 +20°C° 0 mm 3 m/s 752 mmHg 57%
    16:00 +20°C° 0 mm 4 m/s 752 mmHg 58%
    17:00 +20°C° 0 mm 5 m/s 752 mmHg 58%
    18:00 +20°C° 0 mm 5 m/s 752 mmHg 58%
    19:00 +20°C° 0 mm 6 m/s 751 mmHg 58%
    20:00 +18°C° 0 mm 7 m/s 751 mmHg 57%
    21:00 +18°C° 0 mm 8 m/s 751 mmHg 57%
    22:00 +18°C° 0 mm 8 m/s 751 mmHg 55%
    23:00 +18°C° 0 mm 9 m/s 750 mmHg 54%

    Poimâine, 23 Noiembrie, Sâmbătă

    Timp Temperatura Precipitaţii Vânt Presiune Umiditate
    00:00 +18°C° 0 mm 10 m/s 750 mmHg 52%
    01:00 +18°C° 0.1 mm 10 m/s 749 mmHg 54%
    02:00 +18°C° 0.1 mm 10 m/s 749 mmHg 55%
    03:00 +18°C° 0.1 mm 10 m/s 749 mmHg 57%
    04:00 +18°C° 0.1 mm 11 m/s 748 mmHg 59%
    05:00 +18°C° 0.1 mm 12 m/s 748 mmHg 62%
    06:00 +17°C° 0.1 mm 13 m/s 748 mmHg 64%
    07:00 +17°C° 0 mm 13 m/s 748 mmHg 64%
    08:00 +17°C° 0 mm 12 m/s 748 mmHg 65%
    09:00 +17°C° 0 mm 12 m/s 748 mmHg 65%
    10:00 +17°C° 0.1 mm 11 m/s 748 mmHg 65%
    11:00 +17°C° 0.1 mm 10 m/s 748 mmHg 65%
    12:00 +17°C° 0.1 mm 9 m/s 747 mmHg 64%
    13:00 +16°C° 1.1 mm 11 m/s 747 mmHg 68%
    14:00 +14°C° 1.1 mm 12 m/s 747 mmHg 72%
    15:00 +14°C° 1.1 mm 13 m/s 747 mmHg 76%
    16:00 +14°C° 0.3 mm 13 m/s 747 mmHg 73%
    17:00 +14°C° 0.3 mm 13 m/s 748 mmHg 71%
    18:00 +14°C° 0.3 mm 12 m/s 748 mmHg 68%
    19:00 +15°C° 1.1 mm 13 m/s 748 mmHg 69%
    20:00 +15°C° 1.1 mm 14 m/s 749 mmHg 70%
    21:00 +15°C° 1.1 mm 14 m/s 749 mmHg 70%
    22:00 +15°C° 0.4 mm 14 m/s 750 mmHg 68%
    23:00 +15°C° 0.4 mm 14 m/s 750 mmHg 65%

    24 Noiembrie, Duminică

    Timp Temperatura Precipitaţii Vânt Presiune Umiditate
    00:00 +15°C° 0.4 mm 14 m/s 750 mmHg 62%
    01:00 +15°C° 0.2 mm 15 m/s 750 mmHg 66%
    02:00 +15°C° 0.2 mm 15 m/s 750 mmHg 70%
    03:00 +15°C° 0.2 mm 16 m/s 750 mmHg 74%
    04:00 +15°C° 0.8 mm 15 m/s 750 mmHg 74%
    05:00 +15°C° 0.8 mm 15 m/s 751 mmHg 75%
    06:00 +14°C° 0.8 mm 14 m/s 751 mmHg 75%
    07:00 +15°C° 0.7 mm 14 m/s 752 mmHg 74%
    08:00 +15°C° 0.7 mm 14 m/s 753 mmHg 73%
    09:00 +15°C° 0.7 mm 14 m/s 754 mmHg 72%
    10:00 +15°C° 0.5 mm 14 m/s 754 mmHg 72%
    11:00 +15°C° 0.5 mm 14 m/s 754 mmHg 71%
    12:00 +15°C° 0.5 mm 14 m/s 755 mmHg 71%
    13:00 +15°C° 0.3 mm 14 m/s 755 mmHg 71%
    14:00 +15°C° 0.3 mm 14 m/s 755 mmHg 71%
    15:00 +15°C° 0.3 mm 13 m/s 755 mmHg 71%
    16:00 +15°C° 0.3 mm 14 m/s 756 mmHg 71%
    17:00 +15°C° 0.3 mm 14 m/s 756 mmHg 72%
    18:00 +15°C° 0.3 mm 14 m/s 757 mmHg 73%
    19:00 +15°C° 0.1 mm 13 m/s 757 mmHg 73%
    20:00 +15°C° 0.1 mm 13 m/s 758 mmHg 74%
    21:00 +15°C° 0.1 mm 13 m/s 758 mmHg 74%
    22:00 +15°C° 0.1 mm 12 m/s 758 mmHg 74%
    23:00 +16°C° 0.1 mm 11 m/s 759 mmHg 73%

    25 Noiembrie, Luni

    Timp Temperatura Precipitaţii Vânt Presiune Umiditate
    00:00 +16°C° 0.1 mm 10 m/s 759 mmHg 72%
    01:00 +16°C° 0.1 mm 10 m/s 759 mmHg 72%
    02:00 +16°C° 0.1 mm 9 m/s 759 mmHg 72%
    03:00 +16°C° 0.1 mm 8 m/s 759 mmHg 72%
    04:00 +16°C° 0.1 mm 9 m/s 759 mmHg 72%
    05:00 +16°C° 0.1 mm 9 m/s 760 mmHg 73%
    06:00 +16°C° 0.1 mm 9 m/s 760 mmHg 73%
    07:00 +16°C° 0.1 mm 9 m/s 761 mmHg 73%
    08:00 +16°C° 0.1 mm 9 m/s 761 mmHg 73%
    09:00 +16°C° 0.1 mm 9 m/s 762 mmHg 73%
    10:00 +16°C° 0 mm 8 m/s 762 mmHg 72%
    11:00 +16°C° 0 mm 8 m/s 762 mmHg 72%
    12:00 +16°C° 0 mm 7 m/s 762 mmHg 71%
    13:00 +16°C° 0 mm 7 m/s 762 mmHg 72%
    14:00 +16°C° 0 mm 6 m/s 762 mmHg 72%
    15:00 +16°C° 0 mm 6 m/s 762 mmHg 72%
    16:00 +16°C° 0 mm 5 m/s 762 mmHg 71%
    17:00 +16°C° 0 mm 5 m/s 762 mmHg 71%
    18:00 +17°C° 0 mm 4 m/s 762 mmHg 71%
    19:00 +17°C° 0 mm 4 m/s 763 mmHg 70%
    20:00 +17°C° 0 mm 4 m/s 763 mmHg 70%
    21:00 +17°C° 0 mm 4 m/s 763 mmHg 69%
    22:00 +17°C° 0 mm 4 m/s 763 mmHg 70%
    23:00 +17°C° 0 mm 4 m/s 763 mmHg 72%

    26 Noiembrie, Marţi

    Timp Temperatura Precipitaţii Vânt Presiune Umiditate
    00:00 +17°C° 0 mm 4 m/s 763 mmHg 73%
    01:00 +15°C° 0 mm 4 m/s 762 mmHg 73%
    02:00 +15°C° 0 mm 4 m/s 762 mmHg 72%
    03:00 +16°C° 0 mm 3 m/s 762 mmHg 71%
    04:00 +16°C° 0 mm 3 m/s 762 mmHg 71%
    05:00 +16°C° 0 mm 3 m/s 762 mmHg 70%
    06:00 +16°C° 0 mm 3 m/s 762 mmHg 69%
    07:00 +16°C° 0 mm 3 m/s 763 mmHg 68%
    08:00 +16°C° 0 mm 3 m/s 763 mmHg 67%
    09:00 +16°C° 0 mm 2 m/s 763 mmHg 66%
    10:00 +16°C° 0 mm 2 m/s 762 mmHg 64%
    11:00 +16°C° 0 mm 2 m/s 762 mmHg 63%
    12:00 +16°C° 0 mm 1 m/s 762 mmHg 61%
    13:00 +16°C° 0 mm 1 m/s 761 mmHg 60%
    14:00 +18°C° 0 mm 1 m/s 761 mmHg 59%
    15:00 +18°C° 0 mm 1 m/s 761 mmHg 58%
    16:00 +18°C° 0 mm 1 m/s 761 mmHg 58%
    17:00 +18°C° 0 mm 1 m/s 761 mmHg 58%
    18:00 +17°C° 0 mm 2 m/s 762 mmHg 58%
    19:00 +17°C° 0 mm 2 m/s 762 mmHg 59%
    20:00 +17°C° 0 mm 2 m/s 762 mmHg 60%
    21:00 +17°C° 0 mm 3 m/s 762 mmHg 60%
    22:00 +17°C° 0 mm 3 m/s 762 mmHg 62%
    23:00 +17°C° 0 mm 3 m/s 762 mmHg 63%
    Arată mai mult